LOT134 LTFM-EPWA

Flight info

Callsign LOT134
Flight time N/A
Altitude 40000
Route IBLAX P727 BGS L622 KOMAN DCT KENIN DCT LENOV DCT ORTEB DCT KONZI DCT LOGDA
Aircraft B789/H-SDE1E2E3FGHIJ2J3J4J5M1RWXY/LB1D1

Departure

Time 2026-05-06 01:48
Airport İstanbul Airport (LTFM)

Arrival

Time N/A
Airport Warsaw Chopin Airport (EPWA)
Time Latitude Longitude Altitude Speed Heading
2026-05-06 01:33 41.26781 28.74905 303 ft 0 kts 180°
2026-05-06 01:37 41.26787 28.74905 303 ft 2 kts 180°
2026-05-06 01:37 41.26802 28.74905 303 ft 2 kts 180°
2026-05-06 01:38 41.26817 28.74905 303 ft 2 kts 187°
2026-05-06 01:38 41.26832 28.74909 303 ft 2 kts 203°
2026-05-06 01:38 41.26846 28.74918 303 ft 2 kts 216°
2026-05-06 01:38 41.26857 28.74931 303 ft 2 kts 229°
2026-05-06 01:39 41.26866 28.74947 303 ft 2 kts 242°
2026-05-06 01:39 41.26872 28.74965 303 ft 2 kts 255°
2026-05-06 01:39 41.26875 28.74984 303 ft 1 kts 268°
2026-05-06 01:39 41.26875 28.74992 303 ft 0 kts 270°
2026-05-06 01:41 41.26875 28.74990 303 ft 2 kts 270°
2026-05-06 01:42 41.26875 28.74936 303 ft 6 kts 269°
2026-05-06 01:42 41.26874 28.74860 303 ft 10 kts 268°
2026-05-06 01:42 41.26872 28.74747 303 ft 14 kts 269°
2026-05-06 01:42 41.26870 28.74597 303 ft 18 kts 269°
2026-05-06 01:43 41.26922 28.74464 303 ft 18 kts 337°
2026-05-06 01:43 41.26955 28.74300 302 ft 21 kts 269°
2026-05-06 01:43 41.26954 28.74080 302 ft 25 kts 269°
2026-05-06 01:43 41.26950 28.73829 302 ft 28 kts 268°
2026-05-06 01:44 41.26944 28.73540 302 ft 32 kts 269°
2026-05-06 01:44 41.26945 28.73225 302 ft 35 kts 270°
2026-05-06 01:44 41.26932 28.73028 305 ft 17 kts 233°
2026-05-06 01:44 41.26828 28.72999 308 ft 14 kts 180°
2026-05-06 01:45 41.26711 28.73001 312 ft 18 kts 179°
2026-05-06 01:45 41.26566 28.73003 315 ft 23 kts 179°
2026-05-06 01:45 41.26388 28.73008 319 ft 27 kts 179°
2026-05-06 01:45 41.26245 28.73009 322 ft 13 kts 192°
2026-05-06 01:46 41.26207 28.72914 323 ft 12 kts 266°
2026-05-06 01:46 41.26210 28.72803 323 ft 10 kts 305°
2026-05-06 01:46 41.26294 28.72776 321 ft 10 kts 359°
2026-05-06 01:46 41.26299 28.72776 321 ft 0 kts 359°
2026-05-06 01:47 41.26307 28.72776 321 ft 13 kts 359°
2026-05-06 01:47 41.26699 28.72769 312 ft 98 kts 359°
2026-05-06 01:47 41.27644 28.72751 280 ft 171 kts 359°
2026-05-06 01:47 41.29017 28.72716 467 ft 215 kts 359°
2026-05-06 01:48 41.30537 28.72682 1269 ft 223 kts
2026-05-06 01:48 41.32081 28.72680 2308 ft 219 kts
2026-05-06 01:48 41.33506 28.72660 3350 ft 211 kts 358°
2026-05-06 01:48 41.35080 28.72610 3809 ft 234 kts 358°
2026-05-06 01:49 41.36710 28.72555 4496 ft 236 kts 356°
2026-05-06 01:49 41.38334 28.71982 5184 ft 249 kts 340°
2026-05-06 01:49 41.39938 28.71147 6193 ft 249 kts 339°
2026-05-06 01:49 41.41537 28.70235 7155 ft 253 kts 338°
2026-05-06 01:50 41.43153 28.69281 8116 ft 256 kts 337°
2026-05-06 01:50 41.44747 28.68295 9087 ft 256 kts 338°
2026-05-06 01:50 41.46357 28.67294 9936 ft 261 kts 338°
2026-05-06 01:50 41.48019 28.66249 10669 ft 271 kts 338°
2026-05-06 01:51 41.49839 28.65102 10692 ft 309 kts 338°
2026-05-06 01:51 41.51908 28.63794 10782 ft 345 kts 337°
2026-05-06 01:51 41.54133 28.62365 11411 ft 360 kts 337°
2026-05-06 01:51 41.56364 28.60881 12452 ft 363 kts 332°
2026-05-06 01:52 41.58324 28.58695 13334 ft 372 kts 317°
2026-05-06 01:52 41.60159 28.56229 14177 ft 379 kts 315°
2026-05-06 01:52 41.61968 28.53642 14999 ft 385 kts 314°
2026-05-06 01:52 41.63792 28.51001 15811 ft 390 kts 314°
2026-05-06 01:53 41.65614 28.48344 16592 ft 395 kts 315°
2026-05-06 01:53 41.67786 28.46119 17309 ft 398 kts 333°
2026-05-06 01:53 41.70289 28.44459 18074 ft 402 kts 336°
2026-05-06 01:53 41.72867 28.42942 18778 ft 407 kts 339°
2026-05-06 01:54 41.75471 28.41458 19467 ft 413 kts 338°
2026-05-06 01:54 41.78119 28.39961 20147 ft 418 kts 338°
2026-05-06 01:54 41.80835 28.38427 20821 ft 422 kts 338°
2026-05-06 01:54 41.83573 28.36884 21402 ft 430 kts 338°
2026-05-06 01:55 41.86391 28.35295 21428 ft 451 kts 338°
2026-05-06 01:55 41.89298 28.33655 21952 ft 459 kts 337°
2026-05-06 01:55 41.92245 28.31995 22653 ft 462 kts 337°
2026-05-06 01:55 41.95221 28.30318 23310 ft 465 kts 337°
2026-05-06 01:56 41.98214 28.28556 23910 ft 470 kts 331°
2026-05-06 01:56 42.00724 28.25843 24431 ft 470 kts 308°
2026-05-06 01:56 42.02443 28.22113 25089 ft 468 kts 295°
2026-05-06 01:56 42.04062 28.18287 25688 ft 473 kts 298°
2026-05-06 01:57 42.05759 28.14481 26272 ft 477 kts 299°
2026-05-06 01:57 42.07514 28.10737 26862 ft 480 kts 300°
2026-05-06 01:57 42.09326 28.06966 27445 ft 483 kts 300°
2026-05-06 01:57 42.11183 28.03171 28139 ft 482 kts 301°
2026-05-06 01:58 42.13019 27.99455 28904 ft 479 kts 301°
2026-05-06 01:58 42.14861 27.95745 29685 ft 475 kts 301°
2026-05-06 01:58 42.16671 27.92109 30397 ft 472 kts 301°
2026-05-06 01:58 42.18510 27.88416 31091 ft 469 kts 301°
2026-05-06 01:59 42.20299 27.84825 31744 ft 466 kts 301°
2026-05-06 01:59 42.22380 27.81458 32290 ft 471 kts 317°
2026-05-06 01:59 42.25094 27.78997 32910 ft 471 kts 326°
2026-05-06 01:59 42.27879 27.76749 33470 ft 470 kts 327°
2026-05-06 02:00 42.30695 27.74574 34004 ft 468 kts 327°
2026-05-06 02:00 42.33537 27.72420 34516 ft 466 kts 328°
2026-05-06 02:00 42.36361 27.70305 34936 ft 466 kts 328°
2026-05-06 02:00 42.39214 27.68186 35377 ft 465 kts 328°
2026-05-06 02:01 42.42023 27.66107 35784 ft 465 kts 328°
2026-05-06 02:01 42.44851 27.64017 36181 ft 464 kts 328°
2026-05-06 02:01 42.47671 27.61938 36554 ft 464 kts 328°
2026-05-06 02:01 42.50504 27.59847 36886 ft 464 kts 328°
2026-05-06 02:02 42.53330 27.57761 37203 ft 464 kts 328°
2026-05-06 02:02 42.56126 27.55697 37520 ft 464 kts 328°
2026-05-06 02:02 42.58880 27.53465 37824 ft 461 kts 322°
2026-05-06 02:02 42.61497 27.50954 38111 ft 461 kts 321°
2026-05-06 02:03 42.64122 27.48421 38397 ft 460 kts 321°
2026-05-06 02:03 42.66709 27.45905 38655 ft 461 kts 321°
2026-05-06 02:03 42.69283 27.43388 38909 ft 461 kts 321°
2026-05-06 02:03 42.71896 27.40826 39174 ft 460 kts 321°
2026-05-06 02:04 42.74464 27.38303 39420 ft 460 kts 321°
2026-05-06 02:04 42.77061 27.35746 39638 ft 460 kts 321°
2026-05-06 02:04 42.79626 27.33217 39866 ft 460 kts 320°
2026-05-06 02:04 42.82225 27.30652 40040 ft 457 kts 320°
2026-05-06 02:05 42.85650 27.27265 40047 ft 456 kts 320°